Snowfall_Accumulation
nan nan nan nan nan nan nan nan nan nan nan nan nan nan nan nan nan nan nan nan nan nan nan nan nan nan 0.0 0.0 0.0 0.0 nan nan 0.0 0.0 0.0 0.0 0.0 0.0 0.0 0.0 0.0 0.0 0.0 0.0 0.0 0.0 0.0
nan nan nan nan nan nan nan nan nan nan nan nan nan nan nan nan nan nan nan nan nan nan nan nan nan nan 0.0 0.0 0.0 0.0 0.0 0.0 0.0 0.0 0.0 0.0 0.0 0.0 0.0 0.0 0.0 0.0 0.0 0.0 0.0 0.0 0.0
nan nan nan nan nan nan nan nan nan nan nan nan nan nan nan nan nan nan nan nan nan nan nan nan nan 0.0 0.0 0.0 0.0 0.0 0.0 0.0 0.0 0.0 0.0 0.0 0.0 0.0 0.0 0.0 0.0 0.0 0.0 0.0 0.0 0.0 0.0
nan nan nan nan nan nan nan nan nan nan nan nan nan nan nan nan nan nan nan nan nan nan nan nan nan 0.0 0.0 0.0 0.0 0.0 0.0 0.0 0.0 0.0 0.0 0.0 0.0 0.0 0.0 0.0 0.0 0.0 0.0 0.0 0.0 0.0 0.0
nan nan nan nan nan nan nan nan nan nan nan nan nan nan nan nan nan nan nan nan nan nan nan nan 0.0 0.0 0.0 nan 0.0 0.0 0.0 0.0 0.0 0.0 0.0 0.0 0.0 0.0 0.0 0.0 0.0 0.0 0.1 0.0 0.0 0.0 0.0
nan nan nan nan nan nan nan nan nan nan nan nan nan nan nan nan nan nan nan nan nan nan 0.0 0.0 0.0 0.0 0.0 0.0 0.0 0.0 0.0 0.0 0.0 0.0 0.0 0.0 0.0 0.0 0.0 0.0 0.3 0.3 0.1 0.1 0.1 0.0 0.0
nan nan nan nan nan nan nan nan nan nan nan nan nan nan nan nan nan nan 0.0 0.0 0.0 0.0 0.0 0.0 0.0 0.0 0.0 0.0 0.0 0.0 0.0 0.0 0.0 0.0 0.0 0.0 0.0 0.0 0.0 0.1 0.5 0.5 0.6 0.4 0.0 0.0 0.0
nan nan nan nan nan nan nan nan nan nan nan nan nan nan nan nan nan nan 0.0 0.0 0.0 0.0 0.0 0.0 0.0 0.0 0.0 0.0 0.0 0.0 0.0 0.0 0.0 0.0 0.0 0.0 0.0 0.0 0.0 0.0 0.0 0.1 0.7 0.5 0.0 0.0 0.0
nan nan nan nan nan nan nan nan nan nan nan nan nan nan nan nan nan 0.0 0.0 0.0 0.0 0.0 0.0 0.0 0.0 0.0 0.0 0.0 0.0 0.0 0.0 0.0 0.0 0.0 0.0 0.0 0.0 0.0 0.0 0.0 0.1 0.1 0.7 0.2 0.4 0.0 0.0
nan nan nan nan nan nan nan nan nan nan nan nan nan nan nan nan nan 0.0 0.0 0.0 0.0 0.0 0.0 0.0 0.0 0.0 0.0 0.0 0.0 0.0 0.0 0.0 0.0 0.0 0.0 0.0 0.0 0.0 0.0 0.0 0.1 0.1 0.0 0.1 0.1 0.9 0.8
nan nan nan nan nan nan nan nan nan nan nan nan nan nan nan nan 0.0 0.0 0.0 0.0 0.0 0.0 0.9 0.0 0.0 0.0 0.0 0.0 0.0 0.0 0.0 0.0 0.0 0.0 0.0 0.0 0.0 0.0 0.0 0.1 0.0 0.4 0.0 0.1 0.0 0.2 0.3
nan nan nan nan nan nan nan nan nan nan nan nan nan nan nan 0.0 0.0 0.0 0.0 0.0 0.0 0.1 4.0 0.0 0.0 0.0 0.0 0.0 0.0 0.0 0.0 0.0 0.0 0.0 0.0 0.0 0.0 0.0 0.0 0.0 0.0 0.0 0.0 0.0 0.1 0.3 4.8
nan nan nan nan nan nan nan nan nan nan nan nan nan nan nan 0.0 0.0 0.0 0.0 0.0 0.0 0.4 0.0 0.0 0.0 0.0 0.0 0.0 0.0 0.0 0.0 0.0 0.1 0.8 0.0 0.0 0.0 0.0 0.0 0.0 0.0 0.1 0.4 2.7 1.0 3.9 1.9
nan nan nan nan nan nan nan nan nan nan nan nan nan nan nan 0.0 0.0 0.0 0.0 0.0 0.0 0.0 0.0 0.0 0.0 0.0 0.0 0.0 0.0 0.0 0.0 0.0 0.0 0.1 0.5 1.1 0.4 0.0 0.0 0.1 0.4 0.0 0.5 4.0 10.1 3.1 1.8
nan nan nan nan nan nan nan nan nan nan nan nan nan 0.0 0.0 0.0 0.0 0.0 0.0 0.1 0.2 0.0 0.0 0.0 0.0 0.0 0.0 0.0 0.0 0.0 0.0 0.0 0.1 0.1 4.1 1.9 0.3 0.0 0.0 0.0 0.0 0.0 0.5 0.2 6.9 0.2 1.6
nan nan nan nan nan nan nan nan nan nan nan nan 0.0 0.0 0.0 0.0 0.0 0.0 0.0 nan 0.0 0.0 0.0 0.0 0.0 0.0 0.1 0.0 0.0 0.0 0.0 0.0 0.0 0.2 0.1 1.3 3.4 0.0 0.0 0.0 0.0 0.3 0.5 2.2 1.9 7.4 4.1
nan nan nan nan nan nan nan nan nan nan nan nan 0.0 0.0 0.0 0.0 0.0 0.0 0.3 0.1 0.0 0.0 0.0 0.0 0.0 0.0 0.0 0.2 0.1 0.0 0.0 0.2 0.1 0.0 0.0 0.1 2.0 0.3 0.0 0.1 0.1 0.2 3.5 2.4 3.5 4.8 8.5
nan nan nan nan nan nan nan nan nan nan nan nan 0.0 0.1 0.0 0.0 0.0 0.0 0.2 0.0 nan 0.0 0.0 0.0 0.0 0.0 0.1 0.1 0.5 0.0 0.2 0.1 0.1 0.0 0.7 0.1 3.4 2.5 0.2 0.0 0.0 0.1 2.2 3.1 4.8 2.0 4.9
nan nan nan nan nan nan nan nan nan nan nan 0.0 0.0 0.0 0.0 0.0 0.3 0.0 0.1 0.0 0.0 0.0 0.0 0.1 0.0 0.0 0.1 0.2 4.3 0.0 0.2 0.0 0.0 0.2 1.0 1.3 1.6 2.7 1.0 1.4 0.3 0.5 0.9 2.4 2.8 6.8 4.9
nan nan nan nan nan nan nan nan nan nan nan 0.0 0.0 0.4 0.0 0.0 0.0 0.0 0.2 0.2 0.0 0.1 0.1 0.1 0.0 0.0 0.3 0.3 0.2 3.0 0.2 0.0 0.0 0.0 nan nan 5.3 4.3 6.5 2.3 1.6 3.0 0.5 0.4 2.4 10.1 6.1
nan nan nan nan nan nan nan nan nan nan nan 0.0 0.1 0.8 0.1 0.7 0.1 0.2 0.2 0.2 0.1 0.2 0.1 0.0 0.2 0.5 3.4 6.6 0.3 0.1 0.0 0.0 0.0 nan 0.1 0.9 5.3 1.3 1.8 3.5 2.2 3.2 1.2 0.8 1.8 2.4 5.0
nan nan nan nan nan nan nan nan nan nan nan 0.0 0.7 1.0 0.6 0.6 0.2 0.3 0.3 2.0 0.4 0.2 1.3 0.6 1.3 0.8 0.7 5.5 1.4 5.5 3.1 0.6 1.2 0.2 0.5 2.0 7.3 2.5 3.4 2.2 1.5 5.1 2.6 2.5 2.1 2.4 3.8
nan nan nan nan nan nan nan nan nan nan nan 0.0 0.0 0.1 0.2 nan 0.2 2.0 1.2 0.5 0.5 0.4 0.1 0.2 2.2 1.8 1.5 0.1 0.2 0.4 0.7 1.0 2.1 2.6 3.0 7.2 6.4 8.0 8.8 1.6 2.9 8.8 4.0 1.8 2.6 3.0 5.4
nan nan nan nan nan nan nan nan nan nan nan 0.0 0.0 0.1 2.9 4.0 0.9 0.5 0.4 0.2 0.4 0.3 5.5 1.2 0.2 2.1 0.2 0.0 0.1 0.8 2.0 2.8 4.7 4.9 2.3 7.4 5.9 8.0 14.8 7.7 20.7 4.4 3.6 3.9 4.0 4.3 4.6
nan nan nan nan nan nan nan nan nan nan nan 0.0 0.0 0.1 2.6 8.8 0.8 0.4 0.6 0.6 0.3 0.8 1.9 0.9 0.1 0.2 0.1 0.8 5.2 4.5 2.9 4.0 2.6 1.6 3.0 3.3 8.7 19.8 19.5 8.4 3.7 3.4 4.0 4.4 6.7 5.0 6.8
nan nan nan nan nan nan nan nan nan nan nan 0.0 0.0 0.0 0.7 9.8 2.6 1.1 1.9 0.7 4.7 2.2 1.4 0.3 0.2 0.1 0.2 3.0 5.5 9.1 3.8 1.7 2.6 1.8 0.4 3.3 6.7 14.9 12.3 15.2 8.8 3.7 2.3 4.4 9.1 8.8 3.6
nan nan nan nan nan nan nan nan nan nan nan 0.0 0.1 0.1 0.8 11.0 2.9 1.6 5.0 6.0 2.2 2.9 5.2 0.7 1.1 1.7 0.6 5.6 9.4 9.3 6.3 3.0 8.9 2.0 1.4 3.6 7.8 10.9 7.3 19.7 11.7 3.7 2.7 4.6 17.8 9.2 3.3
nan nan nan nan nan nan nan nan nan nan nan 0.0 0.7 0.6 0.3 5.0 3.4 2.1 1.4 2.5 2.3 3.1 8.2 3.5 7.7 4.2 4.9 8.3 6.8 3.9 6.9 5.5 3.8 3.3 3.2 3.4 8.2 8.6 11.2 15.3 17.2 1.0 1.9 6.1 8.7 4.0 4.2
nan nan nan nan nan nan nan nan nan nan nan nan 0.5 0.4 0.2 1.6 5.4 0.5 1.1 1.3 2.7 3.6 3.9 4.1 4.2 4.5 7.5 8.3 6.2 7.9 6.1 3.1 2.3 6.6 1.2 9.1 7.8 9.8 8.1 9.3 8.4 5.9 6.6 5.8 4.8 3.6 3.3
Water_Equivalent
nan nan nan nan nan nan nan nan nan nan nan nan nan nan nan nan nan nan nan nan nan nan nan nan nan nan 0.00 0.00 0.00 0.00 nan nan 0.00 0.00 0.00 0.00 0.00 0.00 0.00 0.00 0.00 0.00 0.00 0.00 0.00 0.00 0.00
nan nan nan nan nan nan nan nan nan nan nan nan nan nan nan nan nan nan nan nan nan nan nan nan nan nan 0.00 0.00 0.00 0.00 0.00 0.00 0.00 0.00 0.00 0.00 0.00 0.00 0.00 0.00 0.00 0.00 0.00 0.00 0.00 0.00 0.00
nan nan nan nan nan nan nan nan nan nan nan nan nan nan nan nan nan nan nan nan nan nan nan nan nan 0.00 0.00 0.00 0.00 0.00 0.00 0.00 0.00 0.00 0.00 0.00 0.00 0.00 0.00 0.00 0.00 0.00 0.00 0.00 0.00 0.00 0.00
nan nan nan nan nan nan nan nan nan nan nan nan nan nan nan nan nan nan nan nan nan nan nan nan nan 0.00 0.00 0.00 0.00 0.00 0.00 0.00 0.00 0.00 0.00 0.00 0.00 0.00 0.00 0.00 0.00 0.00 0.00 0.00 0.00 0.00 0.00
nan nan nan nan nan nan nan nan nan nan nan nan nan nan nan nan nan nan nan nan nan nan nan nan 0.00 0.00 0.00 nan 0.00 0.00 0.00 0.00 0.00 0.00 0.00 0.00 0.00 0.00 0.00 0.00 0.00 0.00 0.01 0.00 0.00 0.00 0.00
nan nan nan nan nan nan nan nan nan nan nan nan nan nan nan nan nan nan nan nan nan nan 0.00 0.00 0.00 0.00 0.00 0.00 0.00 0.00 0.00 0.00 0.00 0.00 0.00 0.00 0.00 0.00 0.00 0.00 0.06 0.04 0.02 0.01 0.01 0.00 0.00
nan nan nan nan nan nan nan nan nan nan nan nan nan nan nan nan nan nan 0.00 0.00 0.00 0.00 0.00 0.00 0.00 0.00 0.00 0.00 0.00 0.00 0.00 0.00 0.00 0.00 0.00 0.00 0.00 0.01 0.00 0.02 0.11 0.09 0.10 0.06 0.00 0.00 0.01
nan nan nan nan nan nan nan nan nan nan nan nan nan nan nan nan nan nan 0.00 0.00 0.00 0.00 0.00 0.00 0.00 0.00 0.00 0.00 0.00 0.00 0.00 0.00 0.00 0.00 0.00 0.00 0.00 0.00 0.00 0.00 0.01 0.02 0.12 0.08 0.00 0.00 0.00
nan nan nan nan nan nan nan nan nan nan nan nan nan nan nan nan nan 0.00 0.00 0.00 0.00 0.00 0.00 0.00 0.00 0.00 0.00 0.00 0.00 0.00 0.00 0.00 0.00 0.00 0.00 0.00 0.00 0.00 0.00 0.01 0.02 0.02 0.12 0.04 0.07 0.00 0.00
nan nan nan nan nan nan nan nan nan nan nan nan nan nan nan nan nan 0.00 0.00 0.00 0.00 0.00 0.00 0.00 0.00 0.00 0.00 0.00 0.00 0.00 0.00 0.00 0.00 0.00 0.00 0.00 0.00 0.00 0.00 0.01 0.02 0.02 0.01 0.02 0.02 0.14 0.12
nan nan nan nan nan nan nan nan nan nan nan nan nan nan nan nan 0.00 0.00 0.00 0.00 0.00 0.00 0.34 0.00 0.00 0.00 0.00 0.00 0.00 0.00 0.00 0.00 0.00 0.00 0.00 0.01 0.00 0.00 0.00 0.01 0.01 0.08 0.00 0.01 0.00 0.03 0.06
nan nan nan nan nan nan nan nan nan nan nan nan nan nan nan 0.00 0.00 0.00 0.00 0.00 0.00 0.03 1.35 0.00 0.00 0.00 0.00 0.00 0.00 0.00 0.00 0.00 0.00 0.00 0.00 0.00 0.00 0.00 0.00 0.00 0.00 0.00 0.00 0.00 0.01 0.05 0.58
nan nan nan nan nan nan nan nan nan nan nan nan nan nan nan 0.00 0.00 0.00 0.00 0.00 0.01 0.14 0.00 0.00 0.01 0.00 0.00 0.00 0.00 0.00 0.00 0.00 0.02 0.21 0.00 0.00 0.00 0.00 0.00 0.00 0.00 0.01 0.06 0.39 0.14 0.50 0.19
nan nan nan nan nan nan nan nan nan nan nan nan nan nan nan 0.00 0.00 0.00 0.00 0.00 0.01 0.00 0.00 0.00 0.00 0.00 0.00 0.00 0.00 0.00 0.00 0.00 0.00 0.02 0.09 0.21 0.15 0.00 0.00 0.01 0.06 0.00 0.08 0.43 0.65 0.31 0.16
nan nan nan nan nan nan nan nan nan nan nan nan nan 0.00 0.00 0.00 0.00 0.00 0.00 0.05 0.06 0.00 0.00 0.00 0.00 0.00 0.00 0.00 0.00 0.00 0.00 0.00 0.01 0.02 0.43 0.22 0.04 0.00 0.00 0.00 0.00 0.01 0.06 0.04 0.64 0.04 0.19
nan nan nan nan nan nan nan nan nan nan nan nan 0.00 0.00 0.00 0.00 0.00 0.00 0.00 nan 0.00 0.00 0.00 0.00 0.00 0.00 0.01 0.00 0.00 0.00 0.00 0.00 0.00 0.03 0.02 0.21 0.32 0.00 0.00 0.00 0.00 0.05 0.07 0.26 0.23 0.63 0.31
nan nan nan nan nan nan nan nan nan nan nan nan 0.00 0.00 0.00 0.00 0.00 0.00 0.08 0.02 0.00 0.00 0.00 0.00 0.00 0.00 0.00 0.03 0.01 0.00 0.00 0.02 0.02 0.00 0.00 0.01 0.21 0.04 0.00 0.01 0.03 0.04 0.47 0.34 0.52 0.61 0.70
nan nan nan nan nan nan nan nan nan nan nan nan 0.00 0.02 0.00 0.00 0.00 0.00 0.06 0.00 nan 0.00 0.00 0.00 0.00 0.00 0.02 0.02 0.07 0.00 0.03 0.01 0.02 0.01 0.11 0.03 0.43 0.31 0.02 0.00 0.00 0.02 0.29 0.41 0.51 0.20 0.50
nan nan nan nan nan nan nan nan nan nan nan 0.00 0.00 0.00 0.00 0.00 0.06 0.01 0.01 0.00 0.00 0.00 0.01 0.01 0.00 0.00 0.02 0.03 0.47 0.00 0.04 0.00 0.00 0.03 0.13 0.18 0.18 0.25 0.09 0.14 0.04 0.07 0.14 0.34 0.41 0.86 0.49
nan nan nan nan nan nan nan nan nan nan nan 0.00 0.00 0.10 0.00 0.00 0.00 0.01 0.03 0.04 0.00 0.01 0.01 0.01 0.01 0.01 0.05 0.05 0.03 0.41 0.03 0.01 0.00 0.00 nan nan 0.64 0.44 0.58 0.19 0.16 0.29 0.06 0.04 0.27 1.10 0.56
nan nan nan nan nan nan nan nan nan nan nan 0.00 0.02 0.16 0.01 0.16 0.03 0.03 0.04 0.05 0.03 0.04 0.01 0.00 0.04 0.08 0.38 0.82 0.05 0.03 0.01 0.00 0.00 nan 0.02 0.13 0.58 0.13 0.18 0.32 0.20 0.26 0.12 0.08 0.17 0.17 0.42
nan nan nan nan nan nan nan nan nan nan nan 0.00 0.17 0.20 0.12 0.11 0.04 0.04 0.06 0.43 0.06 0.03 0.20 0.10 0.19 0.11 0.09 0.75 0.19 0.65 0.43 0.12 0.15 0.03 0.07 0.32 0.84 0.26 0.32 0.13 0.10 0.39 0.25 0.25 0.25 0.18 0.29
nan nan nan nan nan nan nan nan nan nan nan 0.00 0.00 0.02 0.04 nan 0.03 0.36 0.24 0.08 0.07 0.05 0.02 0.04 0.32 0.30 0.28 0.02 0.04 0.06 0.10 0.12 0.26 0.31 0.37 0.97 0.81 0.90 0.85 0.10 0.25 0.79 0.26 0.12 0.19 0.22 0.39
nan nan nan nan nan nan nan nan nan nan nan 0.00 0.00 0.03 0.57 0.57 0.16 0.08 0.06 0.03 0.06 0.05 0.80 0.18 0.05 0.44 0.06 0.01 0.03 0.18 0.42 0.45 0.67 0.59 0.33 0.96 0.72 1.05 1.61 0.68 1.88 0.31 0.22 0.29 0.33 0.34 0.36
nan nan nan nan nan nan nan nan nan nan nan 0.00 0.00 0.04 0.67 1.23 0.15 0.07 0.09 0.08 0.05 0.13 0.30 0.19 0.04 0.06 0.02 0.20 0.79 0.57 0.33 0.45 0.30 0.22 0.44 0.55 1.21 2.29 1.91 0.71 0.25 0.23 0.28 0.32 0.50 0.38 0.53
nan nan nan nan nan nan nan nan nan nan nan 0.00 0.00 0.00 0.25 1.57 0.38 0.15 0.29 0.10 0.72 0.31 0.25 0.07 0.04 0.04 0.06 0.57 0.80 0.96 0.36 0.16 0.29 0.20 0.07 0.40 0.89 1.90 1.29 1.34 0.66 0.26 0.15 0.38 0.91 0.73 0.29
nan nan nan nan nan nan nan nan nan nan nan 0.00 0.01 0.01 0.15 1.94 0.50 0.22 0.74 0.82 0.37 0.51 0.83 0.14 0.20 0.31 0.17 0.82 1.10 0.97 0.66 0.36 0.83 0.20 0.13 0.37 0.82 1.09 0.70 1.87 0.94 0.29 0.19 0.37 1.52 0.69 0.24
nan nan nan nan nan nan nan nan nan nan nan 0.00 0.09 0.10 0.06 1.29 0.60 0.31 0.21 0.44 0.48 0.65 1.09 0.58 1.09 0.67 0.77 1.01 0.84 0.50 0.79 0.62 0.39 0.31 0.29 0.33 0.75 0.82 1.09 1.45 1.56 0.07 0.17 0.44 0.64 0.31 0.33
nan nan nan nan nan nan nan nan nan nan nan nan 0.07 0.06 0.03 0.46 1.10 0.09 0.21 0.24 0.42 0.56 0.64 0.90 0.65 0.57 1.09 1.10 0.80 1.02 0.71 0.34 0.21 0.55 0.09 0.73 0.58 0.75 0.62 0.69 0.69 0.45 0.45 0.41 0.35 0.24 0.21
SL_Ratio
nan nan nan nan nan nan nan nan nan nan nan nan nan nan nan nan nan nan nan nan nan nan nan nan nan nan nan nan nan nan nan nan nan nan nan nan nan nan nan nan nan nan nan nan nan nan nan
nan nan nan nan nan nan nan nan nan nan nan nan nan nan nan nan nan nan nan nan nan nan nan nan nan nan nan nan nan nan nan nan nan nan nan nan nan nan nan nan nan nan nan nan nan nan nan
nan nan nan nan nan nan nan nan nan nan nan nan nan nan nan nan nan nan nan nan nan nan nan nan nan nan nan nan nan nan nan nan nan nan nan nan nan nan nan nan nan nan nan nan nan nan nan
nan nan nan nan nan nan nan nan nan nan nan nan nan nan nan nan nan nan nan nan nan nan nan nan nan nan nan nan nan nan nan nan nan nan nan nan nan nan nan nan nan nan nan nan nan nan nan
nan nan nan nan nan nan nan nan nan nan nan nan nan nan nan nan nan nan nan nan nan nan nan nan nan nan nan nan nan nan nan nan nan nan nan nan nan nan nan nan nan nan 6.1 5.0 nan nan nan
nan nan nan nan nan nan nan nan nan nan nan nan nan nan nan nan nan nan nan nan nan nan nan nan nan nan nan nan nan nan nan nan nan nan nan nan nan nan nan nan 5.9 7.0 6.5 5.8 5.9 0.0 nan
nan nan nan nan nan nan nan nan nan nan nan nan nan nan nan nan nan nan nan nan nan nan nan nan nan nan nan nan nan nan nan nan nan nan nan nan nan 3.4 nan 3.7 4.5 5.2 6.0 6.3 5.4 nan 6.3
nan nan nan nan nan nan nan nan nan nan nan nan nan nan nan nan nan nan nan nan nan nan nan nan nan nan nan nan nan nan nan nan nan nan nan nan nan nan nan nan 5.2 5.1 5.7 6.0 5.0 nan 5.0
nan nan nan nan nan nan nan nan nan nan nan nan nan nan nan nan nan nan nan nan nan nan nan nan nan nan nan nan nan nan nan nan nan nan nan nan nan nan nan 4.4 5.0 5.1 5.6 5.5 6.0 nan nan
nan nan nan nan nan nan nan nan nan nan nan nan nan nan nan nan nan nan nan nan nan nan nan nan nan nan nan nan nan nan nan nan nan nan nan nan nan nan nan 4.5 5.1 5.8 5.0 5.1 5.4 6.1 6.7
nan nan nan nan nan nan nan nan nan nan nan nan nan nan nan nan nan nan nan nan nan nan 2.7 nan nan nan nan nan nan nan nan nan nan nan 3.3 5.2 nan nan 5.6 4.9 4.5 5.8 3.3 5.0 4.5 5.6 5.8
nan nan nan nan nan nan nan nan nan nan nan nan nan nan nan nan nan nan nan nan nan 2.5 2.9 nan nan nan nan nan nan nan nan nan nan nan nan 4.3 nan nan 5.0 nan nan 3.3 5.0 nan 4.9 5.7 8.3
nan nan nan nan nan nan nan nan nan nan nan nan nan nan nan nan nan nan nan nan 2.4 2.5 nan nan 2.4 nan nan nan nan nan nan nan 6.0 4.0 nan nan nan nan 0.0 5.0 nan 4.5 6.2 7.0 7.3 7.8 10.1
nan nan nan nan nan nan nan nan nan nan nan nan nan nan nan nan nan nan nan nan 2.7 nan nan nan nan nan nan nan nan nan nan nan 5.0 5.0 5.9 5.4 2.9 nan nan 4.9 6.0 5.0 6.7 9.2 15.5 10.0 10.8
nan nan nan nan nan nan nan nan nan nan nan nan nan nan nan nan nan nan nan 2.5 3.0 10.0 nan nan nan nan nan nan nan nan nan 10.0 5.4 5.8 9.6 8.6 8.7 nan nan nan nan 5.8 7.4 6.4 10.8 7.0 8.5
nan nan nan nan nan nan nan nan nan nan nan nan nan nan nan nan nan nan nan nan nan nan nan nan nan nan 6.8 nan nan nan nan 8.8 6.0 5.5 3.1 6.5 10.7 nan nan nan 6.4 6.2 7.3 8.4 8.1 11.8 13.2
nan nan nan nan nan nan nan nan nan nan nan nan nan nan nan nan nan nan 3.5 3.1 nan nan 0.0 nan 5.0 6.0 nan 7.6 6.7 10.0 9.3 8.6 5.7 5.0 5.6 5.8 9.3 6.8 10.0 5.5 5.6 5.5 7.3 7.0 6.8 7.9 12.1
nan nan nan nan nan nan nan nan nan nan nan nan nan 3.1 nan nan 5.6 5.3 3.4 6.2 nan nan nan 6.2 nan 10.0 6.0 7.0 6.8 6.7 9.4 7.0 5.2 4.8 6.4 5.1 7.9 8.2 11.7 nan 8.8 6.6 7.7 7.5 9.3 10.2 9.8
nan nan nan nan nan nan nan nan nan nan nan nan nan nan nan nan 4.2 4.8 6.9 6.4 6.0 0.0 6.4 6.8 6.7 10.0 5.3 7.2 9.0 5.5 5.5 nan nan 5.1 7.1 7.3 8.9 11.0 10.9 9.9 9.1 7.2 6.8 7.0 6.9 7.9 9.9
nan nan nan nan nan nan nan nan nan nan nan nan 3.1 4.1 0.0 5.0 6.7 4.8 5.9 5.6 6.0 6.3 6.7 6.3 6.5 6.3 6.0 6.2 6.8 7.3 5.4 5.0 nan nan nan nan 8.2 9.8 11.2 11.9 9.9 10.4 8.1 8.0 8.6 9.1 11.0
nan nan nan nan nan nan nan nan nan nan nan nan 3.2 4.8 4.9 4.2 4.4 5.7 5.0 4.4 4.3 5.4 7.0 6.7 5.5 6.7 8.8 8.0 5.3 4.6 5.3 0.0 nan nan 6.3 7.3 9.2 10.0 10.0 10.9 11.2 12.4 10.0 9.5 10.8 14.1 12.0
nan nan nan nan nan nan nan nan nan nan nan nan 4.1 5.0 4.5 5.2 5.7 6.6 4.7 4.7 6.8 7.7 6.5 5.9 6.8 7.2 7.2 7.3 7.5 8.5 7.2 5.3 8.0 5.5 7.9 6.3 8.7 9.8 10.8 16.7 16.1 13.3 10.8 10.3 8.3 13.8 13.1
nan nan nan nan nan nan nan nan nan nan nan nan 0.0 4.6 4.0 nan 5.9 5.6 5.0 6.7 6.7 7.0 6.3 5.9 7.0 5.8 5.3 6.1 5.6 5.9 7.1 8.3 8.3 8.3 8.1 7.4 7.9 8.9 10.4 15.2 11.7 11.2 15.4 15.7 14.1 13.8 13.9
nan nan nan nan nan nan nan nan nan nan nan nan nan 3.4 5.0 7.1 5.6 6.2 7.0 6.1 6.0 6.0 6.9 6.6 4.5 4.8 3.7 3.3 4.3 4.3 4.7 6.1 6.9 8.4 7.1 7.6 8.1 7.6 9.2 11.2 11.0 14.2 16.7 13.2 12.2 12.8 12.8
nan nan nan nan nan nan nan nan nan nan nan nan nan 2.7 3.9 7.1 5.5 6.0 7.3 7.2 6.3 6.3 6.2 4.6 4.1 3.8 3.6 3.9 6.6 7.9 8.5 8.8 8.8 7.1 7.0 6.0 7.2 8.6 10.2 11.8 14.9 14.9 14.6 13.8 13.4 13.1 12.8
nan nan nan nan nan nan nan nan nan nan nan nan nan 10.0 2.9 6.2 7.0 7.6 6.5 6.8 6.5 6.9 5.7 4.8 3.9 3.3 3.4 5.3 6.9 9.4 10.5 10.6 9.1 9.1 6.1 8.2 7.5 7.8 9.5 11.4 13.4 14.4 14.7 11.7 10.0 12.0 12.7
nan nan nan nan nan nan nan nan nan nan nan nan 6.0 5.6 5.3 5.6 5.9 7.2 6.8 7.3 6.1 5.8 6.2 5.2 5.3 5.4 3.8 6.9 8.5 9.6 9.6 8.5 10.8 10.4 10.8 9.7 9.4 10.0 10.3 10.6 12.4 13.0 14.3 12.2 11.7 13.4 13.8
nan nan nan nan nan nan nan nan nan nan nan 5.0 7.6 6.6 5.4 3.9 5.7 7.0 6.4 5.7 4.7 4.8 7.5 6.0 7.0 6.3 6.4 8.2 8.0 7.9 8.8 8.9 9.7 10.7 11.0 10.4 11.0 10.5 10.3 10.6 11.0 13.7 11.7 13.6 13.7 12.9 12.8
nan nan nan nan nan nan nan nan nan nan nan nan 7.8 6.2 7.2 3.6 5.0 5.3 5.5 5.5 6.4 6.4 6.1 4.6 6.4 7.8 6.8 7.5 7.8 7.8 8.6 9.2 10.8 12.0 12.8 12.6 13.3 13.1 13.1 13.5 12.1 13.1 14.6 14.0 13.6 15.0 15.5